ICEYE-X6 (46497 NORAD) Tracking and Keplerian Element Data

This shows tracking and keplerian element data for the satellite.

Feedback or suggestion? Click here.




ElementValue
Catalog46497
NameICEYE-X6
Epoch Orbit948
Epoch Day335.79914104
Epoch Year2020
RAAN268.6829
Inclination97.6755
Eccentricity0.0017722
Argument of Perigee34.5424
Mean Anonmoly325.6958
Mean Motion15.02896899
Decay Rate5.6E-06
L11 46497U 20068M 20335.79914104 .00000560 00000-0 46213-4 0 9995
L22 46497 97.6755 268.6829 0017722 34.5424 325.6958 15.02896899 9489

Live tracking and technical data element details for ICEYE-X6 (NORAD 46497). ICEYE-X6 can be tracked NOW for your location showing map with azimuth and elevation plus other details from your city location.

Track the satellite on the map from your city or location and see movement details for azimuth, elevation, latitude, longitude, range, height, and movement on the map or in text.







IsCatalogInMostPopularTable: catalog: 46497, numindb: 28
Update: records affected: 1



GetName: 46497 ICEYE-X6

Hit Count: updated at: Tue, 01 Dec 2020 22:04:01 GMT